Regional Weather Roundup
Issued by NWS Newport/Morehead, NC

Home | Current Version | Previous Version | Text Only | Print | Product List | Glossary On
Versions: 1 2 3 4 5 6 7 8 9 10 11 12 13 14 15 16 17 18 19 20 21 22 23 24 25 26 27 28 29 30 31 32 33 34 35 36 37 38 39 40 41 42 43 44 45 46 47 48 49 50
000
ASUS42 KMHX 191213
RWRMHX
WEATHER ROUNDUP FOR EASTERN NORTH CAROLINA
NATIONAL WEATHER SERVICE NEWPORT/MOREHEAD CITY NC
700 AM EST SUN FEB 19 2017

NOTE: "FAIR" INDICATES FEW OR NO CLOUDS BELOW 12,000 FEET
WITH NO SIGNIFICANT WEATHER AND/OR OBSTRUCTIONS TO VISIBILITY

NCZ015>017-031-032-045>047-102-103-191300-
NORTH COAST

CITY           SKY/WX    TMP DP  RH WIND       PRES   REMARKS
EDENTON        CLEAR     54  44  68 W5        29.86F
ELIZABETH CITY CLEAR     47  41  80 W5        29.85F
KITTY HAWK     NOT AVBL
MANTEO         CLEAR     50  44  80 SW3       29.86F

$$

NCZ045>047-081-094-103-104-191300-
CENTRAL COAST

CITY           SKY/WX    TMP DP  RH WIND       PRES   REMARKS
FRISCO         MOCLDY    57  48  72 SW7       29.92R HAZE

$$

NCZ095-097-098-100-101-191300-
SOUTHERN COAST

CITY           SKY/WX    TMP DP  RH WIND       PRES   REMARKS
BEAUFORT       PTCLDY    52  45  77 SW5       29.92R
CEDAR ISLAND   NOT AVBL
JACKSONVILLE   CLEAR     50  44  80 SW5       29.92R
PINEY ISLAND   MOSUNNY  N/A N/A N/A S6        29.92R
WILMINGTON     CLEAR     50  45  83 W5        29.93R


$$

NCZ011>013-027>030-043-044-078>080-089-090>093-098-191300-
COASTAL PLAIN

CITY           SKY/WX    TMP DP  RH WIND       PRES   REMARKS
AHOSKIE          N/A     44  41  88 CALM      29.88S
CLINTON        PTCLDY    49  46  89 W3        29.92S
ELIZABETHTOWN  MOCLDY    51  46  82 W3        29.92S
GOLDSBORO      PTCLDY    48  47  96 SW6       29.88S
GREENVILLE     CLEAR     48  43  81 W3        29.90F
HAVELOCK       CLEAR     47  43  86 S6        29.92R
KENANSVILLE    NOT AVBL
KINSTON        CLEAR     50  45  81 CALM      29.91R
NEW BERN       CLEAR     50  43  77 SW3       29.92R
RICHLANDS      CLEAR     45  43  93 SW3       29.92R
ROCKY MOUNT    CLEAR     49  45  86 W5        29.89S
WASHINGTON     PTCLDY    49  42  75 SW5       29.89R
WHITEVILLE     PTCLDY    50  45  84 SW3       29.93S

$$

AMZ130-135-150-152-154-156-158-170-250-252-270-ANZ085-086-088-633-658-670-191300-
MARINE OBSERVATIONS

STATION/POSITION TIME  TEMP    WIND        PRES    WAVE   SWELL
                       AIR SEA DIR/SP/G            HT/PER HT/PER
                 (UTC) (F)     (DEG/KT/KT) (MB)    (FT/S) (FT/S)
CHESAPEAKE LIGHT NOT AVBL
64 E VA BEACH    1150   53 51  220/ 12/ 12 1010.3    4/ 7   3/ 7
DUCK             1148   54 47  250/  9/ 11 1010.2
2 E DUCK         1130      47                N/A     1/10
OREGON INLET     1142   51 51  170/  5/  6 1010.9
13E OREGON INLT  NOT AVBL
HATTERAS CG      1148   56 56  220/  6/  9 1012.7
DIAMOND BUOY     1150   63 68  280/ 10/ 12 1013.3    3/ 4   2/ 5
CAPE LOOKOUT     1200   56     240/  6/  7 1013.0
BEAUFORT LAB     1148   54 51  250/  3/  4 1012.1
30 SE NEW RVR IN 1108   60     320/ 14/ 17 1013.0
30 SE NEW RVR IN 1143      65                N/A     2/ 3
27 SE WRIGHTSVLE 1108   58 61  330/ 10/ 14 1012.7
5 SE WRIGHTSVLE  1108   55 55  310/ 10/ 14 1012.9
225 S CAPE HAT   1150   69 71  190/ 17/ 19 1014.9    5/ 6   2/10
41 SE CHARLESTON 1050   61 69  310/ 16/ 17 1013.9    3/ 6   2/ 6

$$




USA.gov is the U.S. government's official web portal to all federal, state and local government web resources and services.